#timestamp,LO_Frequency,Hit,StdDev 
1502913615.1,286047000.9,N,1.2
1502913616.0,286047000.9,N,1.1
1502913635.8,286047000.2,N,1.1
1502913655.7,286047000.4,N,1.1
1502913675.5,286047000.9,N,1.0
1502913695.3,286047000.6,N,1.0
1502913715.2,286047000.8,N,1.0
1502913735.0,286047000.5,N,1.0
1502913735.9,286047000.5,N,0.9
1502913755.8,286047002.7,N,1.0
1502913775.6,286047000.1,N,1.0
1502913795.4,286047000.2,N,1.0
1502913815.3,286047002.8,N,1.1
1502913835.1,286047002.5,N,1.1
1502913855.8,286047002.2,N,1.1
1502913875.7,286046999.7,N,1.1
1502913895.5,286046999.8,N,1.0
1502913915.4,286047002.4,N,1.1
1502913935.2,286047001.6,N,1.1
1502913955.0,286047002.1,N,1.1
1502913955.9,286047002.1,N,1.1
1502913975.8,286047002.8,N,1.1
1502913995.6,286047002.7,N,1.2
1502914015.5,286047001.8,N,1.2
1502914035.3,286047002.5,N,1.2
1502914055.1,286047001.9,N,1.1
1502914075.9,286047002.8,N,1.0
1502914095.7,286047002.4,N,1.0
1502914115.6,286047002.6,N,1.0
1502914135.4,286047000.4,N,1.0
1502914155.2,286047000.0,N,1.1
1502914175.1,286046999.7,N,1.1
1502914176.0,286046999.7,N,1.1
1502914195.8,286047002.8,N,1.1
1502914215.7,286047000.1,N,1.2
1502914235.5,286047002.8,N,1.2
1502914255.3,286047001.7,N,1.2
1502914275.2,286047002.5,N,1.2
1502914295.9,286047001.4,N,1.2
1502914315.7,286047001.9,N,1.1
1502914335.6,286047002.5,N,1.1
1502914355.4,286047002.1,N,1.1
1502914375.3,286047001.8,N,1.1
1502914395.1,286047001.5,N,1.1
1502914396.0,286047001.5,N,1.0
1502914415.8,286047001.7,N,1.0
1502914435.7,286047001.8,N,0.9
1502914455.5,286047001.5,N,0.9
1502914475.3,286047001.4,N,0.9
1502914495.2,286047001.6,N,0.9
1502914515.0,286047001.6,N,0.9
1502914515.9,286047001.6,N,0.9
1502914535.8,286047001.6,N,0.9
1502914555.6,286047001.5,N,0.9
1502914575.4,286047001.5,N,0.9
1502914595.3,286047002.5,N,0.9
1502914615.1,286047002.5,N,0.9
1502914635.9,286047001.6,N,0.8
1502914655.7,286047003.2,Y,0.0
1502914675.5,286047002.6,P,0.5
1502914695.4,286047002.0,P,0.4
1502914715.2,286047004.4,P,1.1
1502914735.1,286047002.8,N,1.0
1502914736.0,286047002.8,N,0.9
1502914755.8,286047002.4,N,0.8
1502914775.6,286047002.3,N,0.8
1502914795.5,286047000.5,N,1.0
1502914815.3,286047002.7,N,0.9
1502914835.2,286047002.5,N,0.9
1502914855.9,286047002.4,N,0.9
1502914875.7,286047001.9,N,0.8
1502914895.6,286047000.1,N,1.0
1502914915.4,286047001.7,N,1.0
1502914935.3,286047001.3,N,1.0
1502914955.1,286047004.4,Y,0.0
1502914956.0,286047004.4,P,1.1
1502914975.8,286047001.1,N,1.4
1502914995.7,286047001.0,N,1.4
1502915015.5,286047000.6,N,1.4
1502915035.3,286046998.2,N,1.8
1502915055.2,286046998.5,N,2.0
1502915075.0,286046998.6,N,2.0
1502915075.9,286046998.6,N,2.0
1502915095.8,286047000.9,N,1.9
1502915115.6,286046998.3,N,1.9
1502915135.4,286047000.6,N,1.8
1502915155.3,286047000.8,N,1.7
1502915175.1,286046998.2,N,1.8
1502915195.9,286047000.0,N,1.7
1502915215.7,286047000.0,N,1.6
1502915235.5,286047000.3,N,1.6
1502915255.4,286047000.1,N,1.6
1502915275.2,286046999.7,N,1.5
1502915295.0,286046999.8,N,1.5
1502915296.0,286046999.8,N,1.4
1502915315.8,286047002.7,N,1.5
1502915335.6,286047002.1,N,1.5
1502915355.5,286046999.8,N,1.5
1502915375.3,286046999.7,N,1.5
1502915395.1,286047002.8,N,1.5
1502915415.9,286047000.6,N,1.5
1502915435.7,286046998.2,N,1.5
1502915455.6,286047000.5,N,1.5
1502915475.4,286047000.6,N,1.5
1502915495.2,286047001.1,N,1.4
1502915515.1,286046999.3,N,1.2
1502915516.0,286046999.3,N,1.2
1502915535.8,286046999.4,N,1.2
1502915555.7,286046999.0,N,1.2
1502915575.5,286047000.8,N,1.2
1502915595.3,286046998.4,N,1.2
1502915615.2,286046999.5,N,1.2
1502915635.0,286046996.7,N,1.3
1502915635.9,286046996.7,N,1.4
1502915655.7,286046997.5,N,1.4
1502915675.6,286046996.9,N,1.5
1502915695.4,286046997.4,N,1.6
1502915715.3,286046994.9,Y,0.0
1502915735.1,286046995.7,P,1.9
1502915755.8,286046995.9,N,1.8
1502915775.7,286046996.3,N,1.6
1502915795.5,286046995.9,N,1.5
1502915815.4,286046996.1,N,1.3
1502915835.2,286046996.1,N,1.3
1502915855.0,286046995.9,Y,0.0
1502915855.9,286046995.9,P,0.3
1502915875.8,286046999.3,N,1.5
1502915895.6,286046996.8,N,1.3
1502915915.5,286046997.8,N,1.2
1502915935.3,286046999.6,N,1.4
1502915955.1,286046999.1,N,1.4
1502915975.9,286046996.8,N,1.3
1502915995.7,286046997.6,N,1.3
1502916015.5,286046998.0,N,1.2
1502916035.4,286046998.0,N,1.2
1502916055.2,286046995.3,Y,0.0
1502916075.1,286046997.0,P,0.4
1502916076.0,286046997.0,P,0.4
1502916095.8,286046996.9,P,0.3
1502916115.6,286046997.7,Y,0.0
1502916135.5,286047001.1,P,2.0
1502916155.3,286046998.4,N,1.6
1502916175.2,286046999.3,N,1.4
1502916195.9,286046999.4,N,1.3
1502916215.7,286046998.9,N,1.2
1502916235.6,286047001.0,N,1.3
1502916255.4,286046999.9,N,1.2
1502916275.3,286047001.1,N,1.3
1502916295.1,286046998.2,N,1.3
1502916296.0,286046998.2,N,1.3
1502916315.8,286046999.5,N,1.2
1502916335.7,286046999.3,N,1.2
1502916355.5,286046999.5,N,1.1
1502916375.3,286046996.8,N,1.3
1502916395.2,286046996.8,N,1.3
1502916415.0,286046997.7,N,1.3
1502916415.9,286046997.7,N,1.3
1502916435.8,286046997.1,N,1.4
1502916455.6,286046996.9,N,1.4
1502916475.4,286046997.2,N,1.4
1502916495.3,286046996.5,N,1.4
1502916515.1,286046999.1,N,1.4
1502916535.9,286046999.4,N,1.4
1502916555.7,286046997.0,N,1.4
1502916575.5,286046999.2,N,1.4
1502916595.4,286046999.4,N,1.4
1502916615.2,286046996.6,N,1.4
1502916635.0,286046999.5,N,1.4
1502916635.9,286046999.5,N,1.4
1502916655.8,286046999.0,N,1.3
1502916675.6,286046999.6,N,1.3
1502916695.5,286046999.4,N,1.3
1502916715.3,286046999.1,N,1.3
1502916735.1,286046997.0,N,1.3
1502916755.9,286046997.1,N,1.3
1502916775.7,286046996.7,N,1.3
1502916795.6,286046997.0,N,1.3
1502916815.4,286046999.2,N,1.2
1502916835.2,286046997.4,N,1.2
1502916855.1,286046997.3,N,1.2
1502916856.0,286046997.3,N,1.2
1502916875.8,286046996.7,N,1.2
1502916895.6,286046999.5,N,1.2
1502916915.5,286046997.3,N,1.1
1502916935.3,286046997.9,N,1.1
1502916955.2,286046995.2,Y,0.0
1502916975.0,286046997.7,P,0.2
1502916975.9,286046997.7,P,0.1
1502916995.7,286046997.6,P,0.2
1502917015.6,286046997.8,Y,0.0
1502917035.4,286046998.4,P,0.3
1502917055.3,286047001.2,P,1.5
1502917075.1,286046998.6,N,1.3
1502917095.8,286046998.4,N,1.2
1502917115.7,286046998.3,N,1.1
1502917135.5,286046999.1,N,1.0
1502917155.4,286046998.9,N,1.0
1502917175.2,286046998.1,N,0.9
1502917195.0,286046999.1,N,0.9
1502917195.9,286046999.1,N,0.9
